This is the latest recevied weather packets stored in our database for station/object KD8NVS-13. If no packets are shown the sender has not sent any weather packets the latest 10 day(s).
| Time | Temp. | Humidity | Pressure | Rain* | Wind** | Luminosity | Snow |
|---|---|---|---|---|---|---|---|
| 1778093157 | 15° C | 50% | 1002.1 hPa | 0 mm | - | 342 W/m² | - |
| 1778092854 | 15° C | 49% | 1002.5 hPa | 0 mm | - | 289 W/m² | - |
| 1778092550 | 15° C | 49% | 1002.5 hPa | 0 mm | - | 357 W/m² | - |
| 1778092246 | 15° C | 50% | 1002.5 hPa | 0 mm | - | 373 W/m² | - |
| 1778091944 | 15° C | 48% | 1002.5 hPa | 0 mm | - | 374 W/m² | - |
| 1778091641 | 15° C | 51% | 1002.5 hPa | 0 mm | - | 338 W/m² | - |
| 1778091339 | 15° C | 46% | 1002.5 hPa | 0 mm | - | 342 W/m² | - |
| 1778091036 | 15° C | 46% | 1002.5 hPa | 0 mm | - | 356 W/m² | - |
| 1778090732 | 15° C | 48% | 1002.5 hPa | 0 mm | - | 334 W/m² | - |
| 1778090429 | 15° C | 48% | 1002.5 hPa | 0 mm | - | 365 W/m² | - |
| 1778090126 | 14.44° C | 46% | 1002.8 hPa | 0 mm | - | 360 W/m² | - |
| 1778089822 | 14.44° C | 46% | 1002.5 hPa | 0 mm | - | 363 W/m² | - |
| 1778089521 | 14.44° C | 47% | 1002.5 hPa | 0 mm | - | 328 W/m² | - |
| 1778089216 | 14.44° C | 46% | 1002.5 hPa | 0 mm | - | 347 W/m² | - |
| 1778088914 | 14.44° C | 44% | 1002.5 hPa | 0 mm | - | 377 W/m² | - |
| 1778088611 | 14.44° C | 47% | 1002.8 hPa | 0 mm | - | 378 W/m² | - |
| 1778088309 | 13.89° C | 49% | 1002.5 hPa | 0 mm | - | 369 W/m² | - |
| 1778088004 | 14.44° C | 55% | 1002.5 hPa | 0 mm | - | 309 W/m² | - |
| 1778087701 | 13.89° C | 51% | 1002.1 hPa | 0 mm | - | 234 W/m² | - |
| 1778087399 | 13.89° C | 52% | 1002.1 hPa | 0 mm | - | 150 W/m² | - |
| 1778087095 | 13.89° C | 51% | 1002.1 hPa | 0 mm | - | 84 W/m² | - |
| 1778086788 | 13.89° C | 52% | 1002.1 hPa | 0 mm | - | 84 W/m² | - |
| 1778086486 | 13.89° C | 55% | 1002.5 hPa | 0 mm | - | 82 W/m² | - |
| 1778086177 | 13.89° C | 54% | 1002.5 hPa | 0 mm | - | 164 W/m² | - |
| 1778085874 | 13.33° C | 57% | 1002.8 hPa | 0 mm | - | 256 W/m² | - |
* Rain latest hour (hover to see other rain measurements)
** Current wind speed in m/s (hover to see current wind gust speed)